Regional Weather Roundup
Issued by NWS Cleveland, OH

Home | Current Version | Previous Version | Graphics & Text | Print | Product List | Glossary On
Versions: 1 2 3 4 5 6 7 8 9 10 11 12 13 14 15 16 17 18 19 20 21 22 23 24 25 26 27 28 29 30 31 32 33 34 35 36 37 38 39 40 41 42 43 44 45 46 47 48 49 50
000
ASUS41 KCLE 021502
RWRCLE
OHIO REGIONAL WEATHER ROUNDUP
NATIONAL WEATHER SERVICE CLEVELAND, OH
1000 AM EST MON MAR 02 2015

NOTE: "FAIR" INDICATES FEW OR NO CLOUDS BELOW 12,000 FEET WITH NO
SIGNIFICANT WEATHER AND/OR OBSTRUCTIONS TO VISIBILITY.

OHZ001>008-015>018-024>027-034-035-043-044-021600-
   NORTHWEST OHIO

CITY           SKY/WX    TMP DP  RH WIND       PRES   REMARKS
DEFIANCE       SUNNY     19  11  70 CALM      30.49R
FINDLAY        SUNNY     16  10  77 W12       30.47R WCI   3
TOLEDO EXPRESS SUNNY     20  12  71 W10       30.46R WCI   9
TOLEDO EXEC    SUNNY     16   9  74 SW9       30.47R HAZE    WCI   4
LIMA           SUNNY     17  11  77 SW6       30.48R HAZE    WCI   9
$$

OHZ009>014-019>023-028>033-038-089-021600-
   NORTHEAST OHIO

CITY           SKY/WX    TMP DP  RH WIND       PRES   REMARKS
CLE-HOPKINS    PTSUNNY   22  15  75 W12       30.46R WCI  10
CLE-LAKEFRONT  SUNNY     21  15  78 W13       30.44R WCI   9
CUY CO. ARPT   MOSUNNY   25  18  74 W12G23    30.42R WCI  14
LORAIN-ELYRIA  SUNNY     21  14  74 W12       30.45R WCI   9
ASHTABULA      MOSUNNY   24  13  62 W12G21    30.39R WCI  13
AKRON-CANTON   PTSUNNY   23  16  74 W12       30.41R WCI  12
WOOSTER        SUNNY     20  14  77 W12       30.43R WCI   8
MANSFIELD      SUNNY     20  13  74 W10       30.42R WCI   9
YOUNGSTOWN     FLURRIES  23  13  65 W12G22    30.38R WCI  12
$$

OHZ042-051>053-060>062-070>072-077>081-021600-
  SOUTHWEST OHIO

CITY           SKY/WX    TMP DP  RH WIND       PRES   REMARKS
CINC-COVINGTON PTSUNNY   25  15  66 N3        30.52R
CINC-LUNKEN    SUNNY     26  16  65 NE8       30.56R WCI  18
HAMILTON       MOSUNNY   24  14  65 N5        30.55R WCI  18
DAYTON         PTSUNNY   20  12  71 W5        30.51R WCI  13
WRIGHT-PAT AFB MOSUNNY   21  13  71 NW6       30.52R WCI  13
DAYTON GENERAL SUNNY     22  14  71 NW3       30.50R
WILMINGTON     SUNNY     23  14  68 N5        30.51R WCI  17
$$

OHZ036-037-039>041-045>050-054>059-063>069-073>076-082>088-021600-
  CENTRAL AND SOUTHEAST OHIO

CITY           SKY/WX    TMP DP  RH WIND       PRES   REMARKS
COLUMBUS       PTSUNNY   21  14  74 W5        30.50R WCI  15
OSU AIRPORT    MOSUNNY   19  13  77 W7        30.50R WCI  10
BOLTON FIELD   SUNNY     21  14  73 W5        30.51R WCI  15
RICKENBACK AFB NOT AVBL
NEWARK         MOSUNNY   23  15  71 W9        30.48R WCI  13
MARION         SUNNY     19  12  74 W9        30.47R HAZE    WCI   8
LANCASTER      MOSUNNY   22  15  75 W8        30.50R WCI  12
ZANESVILLE     CLOUDY    23  14  68 W8        30.48R WCI  14
NEW PHILLY     PTSUNNY   25  15  66 VRB6      30.46R WCI  18
$$



USA.gov is the U.S. government's official web portal to all federal, state and local government web resources and services.